Torna al catalogo

STARLINK-37639

AttivoComunicazioniSSO
NORAD 69146·PAYLOAD·🇺🇸 United States

Lanciato May 20, 2026 da Vandenberg Space Force Base

Loading…

Prossimi Passaggi (prossime 24 ore)

TLE

AggiornatoSource: CelesTrak SupGP

Epoca: Sep 14, 2026, 23:25 UTC

1 69146C 26110Y   26257.97618056  .00069362  00000+0  21531-2 0  2576
2 69146  97.2852  93.1838 0001660  92.8079 284.5646 15.33403801    15

Traccia STARLINK-37639 in tempo reale con AllMySat

Download on the App Store